Home   Weather   Fairfield Crest   Past weeks
Flag for USA

Past Weather in Fairfield Crest, Delaware, USA — Yesterday and Last 2 Weeks

Now
40 °F

Passing clouds.


Feels Like: 34 °F
Forecast: 51 / 30 °F
Wind: 9 mph from Northwest

Location: New Castle County Airport

Current Time: Dec 5, 2019 at 8:38:02 pm

Latest Report: Dec 5, 2019 at 6:51 pm


Visibility: 10 mi

Pressure: 30.07 "Hg

Humidity: 51%

Dew Point: 23 °F

Location of Fairfield CrestLocation

Past Weather in Fairfield Crest — Graph

°F

Fairfield Crest Temperature Yesterday

Maximum temperature yesterday: 44 °F (at 11:51 am)
Minimum temperature yesterday: 33 °F (at 1:51 am)
Average temperature yesterday: 38 °F

High & Low Weather Summary for the Past Weeks

 TemperatureHumidityPressure
High63 °F (Nov 26, 2:51 pm)97% (Nov 26, 12:59 am)30.27 "Hg (Nov 26, 12:59 am)
Low29 °F (Nov 23, 4:51 am)30% (Dec 3, 1:51 pm)29.36 "Hg (Nov 24, 5:11 am)
Average42 °F68%29.84 "Hg
* Reported Nov 20 6:51 pm — Dec 5 6:51 pm, Fairfield Crest. Weather by CustomWeather, © 2019

Note: Actual official high and low records may vary slightly from our data, if they occured in-between our weather recording intervals... More about our weather records

Fairfield Crest Weather History for the Previous 24 Hours

Scroll right to see more
 ConditionsComfort  
Time TempWeatherWind HumidityBarometerVisibility
6:51 pm
Thu, Dec 5
40 °FPassing clouds.9 mph51%30.07 "Hg10 mi
5:51 pm42 °FPassing clouds.18 mph45%30.04 "Hg10 mi
4:51 pm43 °FOvercast.14 mph43%30.01 "Hg10 mi
3:51 pm44 °FOvercast.15 mph41%29.98 "Hg10 mi
2:51 pm44 °FPartly sunny.22 mph41%29.94 "Hg10 mi
1:51 pm44 °FPartly sunny.22 mph41%29.92 "Hg10 mi
12:51 pm44 °FPartly sunny.23 mph40%29.90 "Hg10 mi
11:51 am43 °FScattered clouds.25 mph43%29.90 "Hg10 mi
10:51 am43 °FScattered clouds.23 mph49%29.89 "Hg10 mi
9:51 am40 °FMore clouds than sun.10 mph68%29.90 "Hg10 mi
8:51 am39 °FMore clouds than sun.18 mph67%29.86 "Hg10 mi
7:51 am38 °FPassing clouds.9 mph68%29.82 "Hg10 mi
6:51 am36 °FPassing clouds.9 mph75%29.79 "Hg10 mi
5:51 am36 °FOvercast.9 mph79%29.74 "Hg10 mi
4:51 am34 °FClear.6 mph82%29.70 "Hg10 mi
3:51 am36 °FOvercast.7 mph79%29.67 "Hg10 mi
2:51 am36 °FOvercast.6 mph79%29.65 "Hg10 mi
1:51 am35 °FClear.8 mph82%29.62 "Hg10 mi
12:51 am34 °FClear.8 mph88%29.61 "Hg10 mi
11:51 pm
Wed, Dec 4
35 °FPassing clouds.3 mph88%29.60 "Hg8 mi
10:51 pm36 °FFog.3 mph92%29.60 "Hg5 mi
10:34 pm36 °FFog.No wind92%29.60 "Hg2 mi
10:17 pm35 °FFog.No wind92%29.60 "Hg2 mi
9:51 pm37 °FFog.No wind89%29.60 "Hg6 mi
8:51 pm38 °FOvercast.3 mph90%29.61 "Hg8 mi
Weather by CustomWeather, © 2019

See weather overview

Advertising